Regional Weather Roundup
Issued by NWS

Home | Current Version | Previous Version | Text Only | Print | Product List | Glossary Off
Versions: 1 2 3 4 5 6 7 8 9 10 11 12 13 14 15 16 17 18 19 20 21 22 23 24 25 26 27 28 29 30 31 32 33 34 35 36 37 38 39 40 41 42 43 44 45 46 47 48 49 50

000
ASUS43 KDMX 160406
RWRIA

WEATHER ROUNDUP FOR IOWA
NATIONAL WEATHER SERVICE DES MOINES IA
1000 PM CST FRI DEC 15 2017

NOTE: "FAIR" INDICATES FEW OR NO CLOUDS BELOW 12,000 FEET WITH NO
SIGNIFICANT WEATHER AND/OR OBSTRUCTIONS TO VISIBILITY.

* - THESE STATIONS ARE NOT NWS STATIONS...THUS NOT UNDER NWS
QUALITY CONTROL.  THEY ALSO DO NOT REPORT WEATHER SUCH
AS PRECIPITATION OR FOG.

IAZ001>003-012>014-020>022-031>034-043>046-160500-
   NORTHWEST IOWA

CITY           SKY/WX    TMP DP  RH WIND       PRES   REMARKS
CARROLL *      CLOUDY    37  25  60 SW17      29.72F WCI  28
CHEROKEE *     CLOUDY    34  26  71 S5        29.68F WCI  30
DENISON *      CLOUDY    37  25  60 S8        29.74S WCI  31
LE MARS *      CLOUDY    36  28  75 S7        29.67S WCI  30
ORANGE CITY *  CLOUDY    36  30  80 S6        29.66S WCI  31
SHELDON *      CLOUDY    37  28  70 SW12      29.64S WCI  30
SIOUX CITY     CLOUDY    33  25  72 VRB5      29.69F WCI  29
SPENCER        CLOUDY    38  27  64 SW9       29.66S WCI  31
STORM LAKE *   CLOUDY    36  25  64 SW13      29.68F WCI  27
$$

IAZ055>058-069>071-079>083-090>094-160500-
   SOUTHWEST IOWA

CITY           SKY/WX    TMP DP  RH WIND       PRES   REMARKS
ATLANTIC *     CLOUDY    36  25  64 SW12G17   29.76F WCI  27
AUDUBON *      CLOUDY    37  25  60 S10       29.75F WCI  30
CLARINDA *       N/A     36  25  64 S8          N/A  WCI  29
COUNCIL BLFS * CLOUDY    39  25  56 SW10      29.75F WCI  32
CRESTON *      CLOUDY    34  25  69 SW13      29.80F WCI  25
HARLAN  *      CLOUDY    34  25  69 S7        29.78F WCI  28
LAMONI         CLEAR     36  22  56 S14       29.82F WCI  27
RED OAK *      CLOUDY    36  25  64 S7        29.79S WCI  30
SHENANDOAH *   CLOUDY    41  25  52 SW14      29.81S
$$

IAZ047>049-059>061-072>074-084-160500-
   CENTRAL IOWA

CITY           SKY/WX    TMP DP  RH WIND       PRES   REMARKS
AMES           CLOUDY    36  25  64 S10       29.75F WCI  28
ANKENY *       CLOUDY    39  23  52 SW12      29.79F WCI  32
BOONE *        CLOUDY    37  25  60 SW13      29.73F WCI  29
CHARITON *     CLEAR     36  23  60 S14       29.81F WCI  27
DES MOINES     CLOUDY    39  23  52 S10       29.78F WCI  32
GRINNELL*      CLOUDY    35  22  60 S12       29.79F WCI  26
KNOXVILLE *    CLEAR     39  21  48 SW16      29.78F WCI  30
MARSHALLTOWN   MOCLDY    37  23  56 S15       29.75F WCI  28
NEWTON *       CLOUDY    36  21  55 SW14      29.78F WCI  27
PELLA *        CLEAR     36  22  57 S8        29.82F WCI  29
PERRY *          N/A     33  22  64 S13       29.75F WCI  24
$$

IAZ004>006-015-016-023>025-035-036-160500-
   NORTH CENTRAL IOWA

CITY           SKY/WX    TMP DP  RH WIND       PRES   REMARKS
ALGONA *       CLOUDY    36  27  69 S9        29.68S WCI  29
CLARION *      CLOUDY    37  27  65 S14       29.70F WCI  29
ESTHERVILLE    CLOUDY    36  26  67 SW12      29.65F WCI  28
FORT DODGE *   CLOUDY    37  25  61 SW15      29.70F WCI  28
MASON CITY     CLOUDY    35  24  64 S6        29.71F WCI  30
FOREST CITY *  MOCLDY    37  27  65 SW9       29.69F WCI  31
WEBSTER CITY * CLOUDY    36  25  64 S13       29.69F WCI  27
IOWA FALLS *     N/A     37  25  64 S12       29.74F WCI  29
$$

IAZ007>011-017>019-026>030-037>042-050>054-066-160500-
   NORTHEAST IOWA

CITY           SKY/WX    TMP DP  RH WIND       PRES   REMARKS
CEDAR RAPIDS   CLOUDY    37  22  54 S15       29.80F WCI  28
CHARLES CITY * CLOUDY    36  25  64 S8        29.74S WCI  29
CLINTON *      CLOUDY    37  22  54 SW15      29.86F WCI  28
DECORAH *      CLOUDY    34  27  75 S6        29.74S WCI  29
DUBUQUE        CLOUDY    34  24  67 SW10      29.80F WCI  26
MONTICELLO *   CLOUDY    36  23  60 S8        29.81S WCI  29
OELWEIN *      CLOUDY    36  25  64 S12       29.76F WCI  27
WATERLOO       CLOUDY    36  22  56 S10       29.76F WCI  28
$$

IAZ064-065-067-068-078-160500-
   EAST CENTRAL IOWA

CITY           SKY/WX    TMP DP  RH WIND       PRES   REMARKS
DAVENPORT      CLOUDY    37  21  52 S14       29.88F WCI  28
IOWA CITY      CLOUDY    38  23  55 S10       29.86F WCI  31
MT. PLEASANT * CLOUDY    35  21  57 S13       29.88F WCI  26
MUSCATINE *    CLOUDY    39  21  48 SW17G24   29.87F WCI  30
QUAD CITIES    CLOUDY    38  22  52 SW14      29.87F WCI  30
$$

IAZ062-063-075>077-085>089-095>099-160500-
   SOUTHEAST IOWA

CITY           SKY/WX    TMP DP  RH WIND       PRES   REMARKS
BURLINGTON     CLOUDY    36  23  59 SW13      29.90F WCI  27
FAIRFIELD *    CLEAR     36  19  51 S14       29.85F WCI  27
FORT MADISON * MOCLDY    36  23  60 SW12G17   29.91S WCI  27
KEOKUK *       CLOUDY    36  21  55 S12       29.91S WCI  27
OSKALOOSA *      N/A     35  22  59 SW12      29.83F WCI  27
OTTUMWA        CLEAR     36  21  54 S14       29.83F WCI  27
WASHINGTON *   MOCLDY    37  23  56 SW13G20   29.87S WCI  29
$$

ABBREVIATIONS USED IN REMARKS
   TC - TEMPERATURES IN CELSIUS
  WCI - WIND CHILL INDEX
   HX - HEAT INDEX
  VSB - VISIBILITY
$$





USA.gov is the U.S. government's official web portal to all federal, state and local government web resources and services.